sat.trackr.live / text

‹ back to catalog

STARLINK-2470

NORAD 48334 · 2021-036BL

PAYLOAD ACTIVE UNKNOWN

§ Identity

Operator
Country
US
Launch date
2021-04-29
Launch site
AFETR
Launch vehicle
Mass (kg)
RCS (m²)

Purposes: comms

External: N2YO · Heavens-Above · Gunter

§ Orbital elements

Epoch: 2026-09-19T18:13:28.931232Z

Period
94.01 min
Inclination
53.1582°
Eccentricity
0.0001080
Mean motion
15.31693729 rev/d
Perigee alt
470.0 km
Apogee alt
471.5 km
Semi-major
6,848.9 km
B*
5.9999e-5
RAAN
277.8567°
Arg perigee
86.8399°
Mean anomaly
273.2726°
Rev number
29,778

§ Raw data

STARLINK-24701 48334U 21036BL  26262.75936263  .00001497  00000+0  59999-4 0  99982 48334  53.1582 277.8567 0001080  86.8399 273.2726 15.31693729297780

JSON: /api/v1/satellites/48334 · /tle

For live sub-satellite position, see the globe view (requires WebGL).

§ Visibility from observer

Set your observer location to see the next 7 days of passes ≥ 10°. The values pass through the URL so the page stays shareable.

No JS? Fill the form by hand. The geolocation button needs JavaScript.